This demonstration page uses our WeatherBlox Daily Observations layout. Learn more.

Left ArrowRight Arrow

41.86663, -103.66717

Hourly Observations for January 27, 2017

Temp ( °F °C ) Dew Point ( °F °C ) Humidity (%) Winds ( mph kmh ) Pressure ( in mb ) Visibility ( mi km ) Precip ( " mm )
12:53 am 00:53 Clear 6 -14.4 0 -17.8 76 76 WNW 8 13 30.41 1030 10 16 0.00 0.00
1:53 am 01:53 Clear 7 -13.9 0 -17.8 73 73 W 8 13 30.40 1030 10 16 0.00 0.00
2:53 am 02:53 Clear 3 -16.1 -2 -18.9 79 79 NNW 7 11 30.43 1030 10 16 0.00 0.00
3:53 am 03:53 Mostly Clear 9 -12.8 1 -17.2 70 70 WNW 13 20 30.40 1030 10 16 0.00 0.00
4:53 am 04:53 Clear 8 -13.3 0 -17.8 69 69 WNW 12 19 30.41 1030 10 16 0.00 0.00
5:53 am 05:53 Partly Cloudy 7 -13.9 0 -17.8 73 73 WNW 9 15 30.42 1030 10 16 0.00 0.00
6:53 am 06:53 Cloudy 14 -10 3 -16.1 61 61 WNW 14 22 30.42 1030 10 16 0.00 0.00
7:53 am 07:53 Sunny 15 -9.4 4 -15.6 61 61 NW 14 22 30.42 1030 10 16 0.00 0.00
8:53 am 08:53 Sunny 21 -6.1 7 -13.9 54 54 WNW 16 26 30.41 1030 10 16 0.00 0.00
9:53 am 09:53 Sunny 24 -4.4 10 -12.2 55 55 WNW 15 24 30.42 1030 10 16 0.00 0.00
10:53 am 10:53 Sunny 28 -2.2 13 -10.6 53 53 WNW 13 20 30.44 1031 10 16 0.00 0.00
11:53 am 11:53 Sunny 32 0 15 -9.4 50 50 WNW 18 30 30.42 1030 10 16 0.00 0.00
12:53 pm 12:53 Sunny 34 1.1 18 -7.8 52 52 WNW 23 37 30.38 1029 10 16 0.00 0.00
1:53 pm 13:53 Sunny 33 0.6 17 -8.3 52 52 W 20 31 30.37 1029 10 16 0.00 0.00
2:53 pm 14:53 Sunny 31 -0.6 15 -9.4 52 52 W 20 31 30.39 1029 10 16 0.00 0.00
3:53 pm 15:53 Mostly Sunny 30 -1.1 15 -9.4 54 54 W 15 24 30.40 1030 10 16 0.00 0.00
4:53 pm 16:53 Partly Cloudy 27 -2.8 14 -10 58 58 W 17 28 30.40 1030 10 16 0.00 0.00
5:53 pm 17:53 Cloudy 27 -2.8 13 -10.6 55 55 W 17 28 30.42 1030 10 16 0.00 0.00
6:53 pm 18:53 Cloudy 26 -3.3 15 -9.4 63 63 W 20 31 30.40 1030 10 16 0.00 0.00
7:53 pm 19:53 Mostly Cloudy 25 -3.9 13 -10.6 60 60 WNW 20 31 30.42 1030 10 16 0.00 0.00
8:53 pm 20:53 Clear 21 -6.1 10 -12.2 62 62 WNW 13 20 30.42 1030 10 16 0.00 0.00
9:53 pm 21:53 Clear 20 -6.7 10 -12.2 65 65 WNW 14 22 30.43 1030 10 16 0.00 0.00
10:53 pm 22:53 Clear 16 -8.9 7 -13.9 67 67 NW 10 17 30.44 1031 10 16 0.00 0.00
11:53 pm 23:53 Clear 19 -7.2 9 -12.8 65 65 WNW 10 17 30.40 1030 10 16 0.00 0.00

Powered by AerisWeather